Starlink 6340

operational
NORAD ID: 57361 Int'l Des: 2023-099 Owner: SPXS Country: US Constellation: starlink
LEOCIRCULAR

About Starlink 6340

Description loading...

Live Position

Loading 3D Globe...

Upcoming Passes

Altitude History

Altitude vs Time

uPlot chart will show altitude changes over time

Two-Line Element Set

1 57361U 23099AK 25277.53203235 .00001660 00000-0 13789-3 0 9995
2 57361 43.0041 4.6973 0001102 259.5946 100.4772 15.02538669122774
Epoch: Oct 4, 2025 • Age: 18 hours

Current Status

Altitude 562.2 km
Velocity 7.59 km/s
Sub-Earth Point 39.71°N, 50.59°W
Launch Date Jul 16, 2023
Age 2.2 years
Type internet

Technical Details

Classification Payload
Mass 305.00 kg
Dry Mass 290.00 kg
Total Mass 305.00 kg
Length 0.20 m
Diameter 2.80 m
Span 9.00 m
Shape Box + pan
Manufacturer SPXS
Bus Type Starlink
Phase Status In Orbit
Owner/State SPXS/US

Large Constellations

Loading constellations...